Back to catalog

THORAD DELTA 1 DEB

AliveSSO
NORAD 17023·DEBRIS·🇺🇸 United States

Launched Nov 15, 1974 from Vandenberg Space Force Base

Loading…

Next Passes (next 24 hours)

TLE

FreshSource: Space-Track

Epoch: Sep 13, 2026, 11:12 UTC

1 17023U 74089EW  26256.46690255  .00000149  00000-0  10438-2 0  9991
2 17023 101.5174 222.2519 0053201 100.5847  24.2108 12.64728074919864

Track THORAD DELTA 1 DEB in real time with AllMySat

Download on the App Store